Home   Weather   Merzig   Past weeks

Flag for Germany Past Weather in Merzig, Saarland, Germany — Yesterday and Last 2 Weeks

Now
28 °F

Ice fog.


Feels Like: 25 °F
Forecast: 24 / 40 °F
Wind: 3 mph from South

Location: Luxembourg Airport

Current Time: Dec 7, 2016 at 9:19:52 pm

Latest Report: Dec 7, 2016 at 8:50 pm


Visibility: 0 mi

Pressure: 30.51 "Hg

Humidity: 100%

Dew Point: 28 °F

Location of MerzigLocation

Past Weather in Merzig — Graph

°F

Merzig Temperature Yesterday

Maximum temperature yesterday: 36 °F (at 1:50 pm)
Minimum temperature yesterday: 23 °F (at 6:50 am)
Average temperature yesterday: 28 °F

High & Low Weather Summary for the Past Weeks

 TemperatureHumidityPressure
High57 °F (Nov 23, 2:20 pm)100% (Nov 22, 7:50 pm)30.54 "Hg (Nov 22, 7:50 pm)
Low21 °F (Nov 30, 5:20 am)45% (Nov 29, 2:20 pm)29.92 "Hg (Nov 22, 7:20 pm)
Average36 °F83%30.23 "Hg
* Reported Nov 22 7:20 pm — Dec 7 7:50 pm, Merzig, Weather by CustomWeather, © 2016

Note: Actual official high and low records may vary slightly from our data, if they occured in-between our weather recording intervals... More about our weather records

Advertising

Merzig Weather History for the Previous 24 Hours

Scroll right to see more
 ConditionsComfort  
Time TempWeatherWind HumidityBarometerVisibility
7:50 pm
Wed, Dec 7
28 °FIce fog.2 mph100%30.51 "Hg0 mi
7:20 pm28 °FIce fog.2 mph100%30.51 "Hg0 mi
6:50 pm28 °FIce fog.6 mph100%30.48 "Hg0 mi
6:20 pm28 °FIce fog.5 mph100%30.51 "Hg0 mi
5:50 pm28 °FIce fog.3 mph100%30.51 "Hg0 mi
5:20 pm28 °FIce fog.3 mph100%30.51 "Hg0 mi
4:50 pm30 °FIce fog.2 mph100%30.48 "Hg1 mi
4:20 pm30 °FIce fog.5 mph100%30.48 "Hg0 mi
3:50 pm32 °FIce fog.2 mph93%30.48 "Hg1 mi
3:20 pm32 °FIce fog.3 mph100%30.48 "Hg1 mi
2:50 pm34 °FFog.2 mph93%30.48 "Hg2 mi
2:20 pm32 °FIce fog.2 mph100%30.48 "Hg1 mi
1:50 pm32 °FIce fog.2 mph93%30.48 "Hg1 mi
1:20 pm30 °FIce fog.2 mph100%30.48 "Hg2 mi
12:50 pm30 °FIce fog.2 mph100%30.48 "Hg2 mi
12:20 pm30 °FIce fog.1 mph93%30.51 "Hg2 mi
11:50 am28 °FIce fog.2 mph100%30.51 "Hg1 mi
11:20 am30 °FIce fog.2 mph93%30.51 "Hg1 mi
10:50 am27 °FIce fog.1 mph100%30.51 "Hg1 mi
10:20 am27 °FScattered clouds.2 mph93%30.51 "Hg1 mi
9:50 am25 °FIce fog.2 mph100%30.48 "Hg1 mi
9:20 am25 °FIce fog.2 mph100%30.48 "Hg1 mi
8:50 am25 °FIce fog.1 mph100%30.48 "Hg0 mi
8:20 am25 °FIce fog.2 mph100%30.48 "Hg0 mi
7:50 am25 °FIce fog.3 mph100%30.48 "Hg0 mi
7:20 am23 °FIce fog.5 mph100%30.48 "Hg1 mi
6:50 am23 °FIce fog.1 mph100%30.48 "Hg1 mi
6:20 am23 °FIce fog.1 mph100%30.48 "Hg0 mi
5:50 am21 °FIce fog.No wind100%30.48 "Hg0 mi
5:20 am21 °FCold.2 mph100%30.48 "Hg1 mi
4:50 am23 °FIce fog.1 mph100%30.48 "Hg0 mi
4:20 am21 °FIce fog.1 mph100%30.48 "Hg2 mi
3:50 am23 °FIce fog.1 mph93%30.48 "Hg3 mi
3:20 am23 °FClear.1 mph100%30.48 "HgN/A
2:50 am23 °FIce fog.1 mph100%30.48 "Hg3 mi
2:20 am25 °FIce fog.3 mph93%30.48 "Hg2 mi
1:50 am27 °FIce fog.1 mph100%30.48 "Hg3 mi
1:20 am27 °FIce fog.1 mph93%30.48 "Hg3 mi
12:50 am27 °FIce fog.2 mph93%30.48 "Hg2 mi
12:20 am28 °FIce fog.2 mph93%30.48 "Hg2 mi
11:50 pm
Tue, Dec 6
28 °FIce fog.3 mph93%30.48 "Hg2 mi
11:20 pm28 °FIce fog.2 mph100%30.48 "Hg2 mi
10:50 pm28 °FIce fog.3 mph100%30.48 "Hg2 mi
10:20 pm28 °FIce fog.2 mph93%30.48 "Hg2 mi
9:50 pm30 °FIce fog.2 mph93%30.48 "Hg2 mi
9:20 pm28 °FIce fog.1 mph100%30.48 "Hg3 mi
Weather by CustomWeather, © 2016

See weather overviewHow to use our weather pages